Location: Saint John
(45.2733°N, 66.0633°W)
Time: 12:48:47
(UTC-04:00)

BlueWalker 3 - Pass Details

Date: 01 December 2022
Orbit: 499 x 517 km, 53.2° (Epoch: 01 February)

Event Time Altitude Azimuth Distance (km) Brightness Sun altitude
Rises 18:42:01 0° 291° (WNW) 2,627 6.6 -20.3°
Reaches altitude 10° 18:44:31 10° 305° (NW) 1,736 5.2 -20.7°
Enters shadow 18:47:38 25° 357° (N) 1,067 3.5 -21.2°
